Winfield, KS

7:39 PM CDT on March 25, 2017 (GMT -0500)
Strother

Weather History for KWLD - June, 2013

Change the Weather History Date:

Sunday, June 2, 2013

  Actual Average Record
Temperature  
Mean Temperature 60 °F -  
Max Temperature 72 °F 80 °F 93 °F (2002)
Min Temperature 48 °F 59 °F 48 °F (2013)
Degree Days  
Heating Degree Days 6    
Growing Degree Days 10 (Base 50)    
Moisture  
Dew Point 51 °F    
Average Humidity 72    
Maximum Humidity 97    
Minimum Humidity 47    
Precipitation  
Precipitation 0.00 in - - ()
Sea Level Pressure  
Sea Level Pressure 30.08 in    
Wind  
Wind Speed 7 mph (North)    
Max Wind Speed 15 mph    
Max Gust Speed 21 mph    
Visibility 10 miles    
Events      
Averages and records for this station are not official NWS values.
T = Trace of Precipitation, MM = Missing Value Source: NWS Daily Summary

Daily Weather History Graph

Daily Weather History Graph

Search for Another Location

Airport or City:

Trip Planner

Search our weather history database for the weather conditions in past years. The results will help you decide how hot, cold, wet, or windy it might be!

Date:

Astronomy

Jun. 02, 2013 Rise Set
Actual Time 6:09 AM CDT 8:43 PM CDT
Civil Twilight 5:38 AM CDT 9:14 PM CDT
Nautical Twilight 5:01 AM CDT 9:51 PM CDT
Astronomical Twilight 4:19 AM CDT 10:34 PM CDT
Moon 2:29 AM CDT (6/2) 3:21 PM CDT (6/2)
Length of Visible Light 15h 35m
Length of Day
14h 34m
Waning Crescent, 30% of the Moon is Illuminated
Jun 2
Waning Crescent
Jun 8
New
Jun 16
First Quarter
Jun 23
Full
Jun 29
Last Quarter

Hourly Weather History & Observations

Time (CDT) Temp. Dew Point Humidity Pressure Visibility Wind Dir Wind Speed Gust Speed Precip Events Conditions
12:54 AM 55.9 °F 53.1 °F 90% 30.06 in 10.0 mi NW 4.6 mph - N/A   Clear
1:54 AM 54.0 °F 51.1 °F 90% 30.07 in 10.0 mi NNW 5.8 mph - N/A   Clear
2:54 AM 52.0 °F 50.0 °F 93% 30.07 in 10.0 mi NNW 3.5 mph - N/A   Clear
3:54 AM 51.1 °F 48.0 °F 89% 30.07 in 10.0 mi NW 5.8 mph - N/A   Clear
4:54 AM 50.0 °F 48.9 °F 96% 30.09 in 10.0 mi WNW 4.6 mph - N/A   Partly Cloudy
5:54 AM 48.9 °F 48.0 °F 97% 30.10 in 10.0 mi NW 4.6 mph - N/A   Clear
6:54 AM 52.0 °F 48.9 °F 89% 30.10 in 10.0 mi NW 6.9 mph - N/A   Clear
7:54 AM 55.0 °F 50.0 °F 83% 30.13 in 10.0 mi NNW 10.4 mph - N/A   Clear
8:54 AM 57.9 °F 50.0 °F 75% 30.13 in 10.0 mi North 13.8 mph - N/A   Clear
9:54 AM 61.0 °F 51.1 °F 70% 30.13 in 10.0 mi North 11.5 mph - N/A   Partly Cloudy
10:54 AM 63.0 °F 50.0 °F 63% 30.13 in 10.0 mi North 15.0 mph 19.6 mph N/A   Clear
11:54 AM 64.9 °F 51.1 °F 61% 30.13 in 10.0 mi North 12.7 mph 20.7 mph N/A   Clear
12:54 PM 66.0 °F 53.1 °F 63% 30.12 in 10.0 mi NNW 8.1 mph 16.1 mph N/A   Clear
1:54 PM 68.0 °F 51.1 °F 55% 30.11 in 10.0 mi North 9.2 mph - N/A   Clear
2:54 PM 69.1 °F 53.1 °F 57% 30.09 in 10.0 mi NE 10.4 mph - N/A   Clear
3:54 PM 71.1 °F 53.1 °F 53% 30.06 in 10.0 mi North 11.5 mph - N/A   Clear
4:54 PM 71.1 °F 51.1 °F 49% 30.04 in 10.0 mi NE 9.2 mph - N/A   Clear
5:54 PM 71.1 °F 50.0 °F 47% 30.03 in 10.0 mi ENE 6.9 mph - N/A   Clear
6:54 PM 70.0 °F 51.1 °F 51% 30.01 in 10.0 mi ENE 5.8 mph - N/A   Clear
7:54 PM 68.0 °F 48.9 °F 50% 30.02 in 10.0 mi East 4.6 mph - N/A   Clear
8:54 PM 64.9 °F 52.0 °F 63% 30.02 in 10.0 mi ESE 5.8 mph - N/A   Clear
9:54 PM 61.0 °F 53.1 °F 75% 30.02 in 10.0 mi East 3.5 mph - N/A   Clear
10:54 PM 59.0 °F 53.1 °F 81% 30.03 in 10.0 mi East 4.6 mph - N/A   Clear
11:54 PM 55.0 °F 53.1 °F 93% 30.04 in 10.0 mi SSE 4.6 mph - N/A   Clear